When you browse on this site, cookies collect data to enhance your experience and personalize the content and advertising you see.
Visit our Privacy Policy to learn more. By continuing to use the site, you agree to this use of cookies and data.
  • In France
  • List of Countries
  • For 7 days
  • Water Temperature
  • Satellite Maps
  • Weather Map
  • Weather Widgets
  • user-avatar
    Login

    Hourly Weather Cele

    Today, 19 June, Wednesday

    Time Temperature Precipitation Wind Pressure Humidity
    00:00 +17°C° 0 mm 0 mps 735 mmHg 94%
    01:00 +16°C° 0 mm 0 mps 735 mmHg 94%
    02:00 +16°C° 0 mm 0 mps 735 mmHg 94%
    03:00 +16°C° 0 mm 0 mps 735 mmHg 94%
    04:00 +15°C° 0 mm 0 mps 735 mmHg 95%
    05:00 +17°C° 0 mm 0 mps 735 mmHg 92%
    06:00 +19°C° 0 mm 0 mps 735 mmHg 90%
    07:00 +20°C° 0 mm 0 mps 735 mmHg 88%
    08:00 +22°C° 0 mm 0 mps 735 mmHg 78%
    09:00 +25°C° 0 mm 0 mps 735 mmHg 67%
    10:00 +29°C° 0 mm 1 mps 735 mmHg 57%
    11:00 +30°C° 0.1 mm 1 mps 734 mmHg 54%
    12:00 +30°C° 0.1 mm 1 mps 734 mmHg 50%
    13:00 +31°C° 0.1 mm 1 mps 734 mmHg 46%
    14:00 +30°C° 0.2 mm 2 mps 734 mmHg 50%
    15:00 +30°C° 0.2 mm 2 mps 733 mmHg 53%
    16:00 +29°C° 0.2 mm 2 mps 733 mmHg 57%
    17:00 +28°C° 0.1 mm 2 mps 733 mmHg 63%
    18:00 +26°C° 0.1 mm 2 mps 733 mmHg 69%
    19:00 +25°C° 0.1 mm 2 mps 733 mmHg 75%
    20:00 +23°C° 0.1 mm 2 mps 733 mmHg 79%
    21:00 +20°C° 0.1 mm 2 mps 733 mmHg 83%
    22:00 +19°C° 0.1 mm 1 mps 733 mmHg 87%
    23:00 +19°C° 0 mm 1 mps 733 mmHg 88%

    Tomorrow, 20 June, Thursday

    Time Temperature Precipitation Wind Pressure Humidity
    00:00 +18°C° 0 mm 1 mps 733 mmHg 88%
    01:00 +18°C° 0 mm 1 mps 733 mmHg 89%
    02:00 +18°C° 0 mm 1 mps 733 mmHg 89%
    03:00 +16°C° 0 mm 1 mps 733 mmHg 88%
    04:00 +16°C° 0 mm 1 mps 733 mmHg 88%
    05:00 +19°C° 0 mm 1 mps 733 mmHg 82%
    06:00 +21°C° 0 mm 1 mps 734 mmHg 77%
    07:00 +23°C° 0 mm 1 mps 734 mmHg 72%
    08:00 +25°C° 0 mm 1 mps 734 mmHg 64%
    09:00 +27°C° 0 mm 1 mps 734 mmHg 57%
    10:00 +30°C° 0 mm 1 mps 734 mmHg 50%
    11:00 +31°C° 0 mm 1 mps 734 mmHg 46%
    12:00 +32°C° 0 mm 1 mps 734 mmHg 41%
    13:00 +33°C° 0 mm 1 mps 733 mmHg 37%
    14:00 +32°C° 0 mm 2 mps 733 mmHg 40%
    15:00 +32°C° 0 mm 2 mps 733 mmHg 42%
    16:00 +31°C° 0 mm 3 mps 733 mmHg 45%
    17:00 +29°C° 0 mm 2 mps 733 mmHg 55%
    18:00 +27°C° 0 mm 2 mps 733 mmHg 65%
    19:00 +25°C° 0 mm 2 mps 733 mmHg 74%
    20:00 +23°C° 0 mm 1 mps 733 mmHg 77%
    21:00 +21°C° 0 mm 1 mps 733 mmHg 80%
    22:00 +20°C° 0 mm 1 mps 734 mmHg 83%
    23:00 +19°C° 0 mm 1 mps 734 mmHg 86%

    Day after tomorrow, 21 June, Friday

    Time Temperature Precipitation Wind Pressure Humidity
    00:00 +19°C° 0 mm 1 mps 734 mmHg 88%
    01:00 +18°C° 0 mm 1 mps 734 mmHg 91%
    02:00 +18°C° 0 mm 1 mps 734 mmHg 92%
    03:00 +16°C° 0 mm 1 mps 734 mmHg 94%
    04:00 +16°C° 0 mm 1 mps 734 mmHg 95%
    05:00 +17°C° 0 mm 0 mps 735 mmHg 89%
    06:00 +19°C° 0 mm 0 mps 735 mmHg 82%
    07:00 +21°C° 0 mm 0 mps 735 mmHg 76%
    08:00 +24°C° 0.1 mm 1 mps 736 mmHg 71%
    09:00 +26°C° 0.1 mm 1 mps 736 mmHg 65%
    10:00 +28°C° 0.1 mm 1 mps 736 mmHg 60%
    11:00 +28°C° 0.4 mm 1 mps 736 mmHg 58%
    12:00 +29°C° 0.4 mm 1 mps 736 mmHg 56%
    13:00 +28°C° 0.4 mm 0 mps 735 mmHg 55%
    14:00 +28°C° 0.3 mm 0 mps 735 mmHg 55%
    15:00 +27°C° 0.3 mm 0 mps 735 mmHg 56%
    16:00 +27°C° 0.3 mm 0 mps 735 mmHg 57%
    17:00 +25°C° 0.7 mm 0 mps 735 mmHg 67%
    18:00 +25°C° 0.7 mm 1 mps 734 mmHg 78%
    19:00 +23°C° 0.7 mm 1 mps 734 mmHg 89%
    20:00 +20°C° 0.6 mm 0 mps 735 mmHg 91%
    21:00 +19°C° 0.6 mm 0 mps 735 mmHg 93%
    22:00 +17°C° 0.6 mm 0 mps 735 mmHg 95%
    23:00 +17°C° 0 mm 0 mps 735 mmHg 95%

    22 June, Saturday

    Time Temperature Precipitation Wind Pressure Humidity
    00:00 +17°C° 0 mm 0 mps 735 mmHg 95%
    01:00 +17°C° 0 mm 0 mps 735 mmHg 95%
    02:00 +16°C° 0 mm 0 mps 735 mmHg 95%
    03:00 +16°C° 0 mm 0 mps 735 mmHg 95%
    04:00 +16°C° 0 mm 0 mps 735 mmHg 95%
    05:00 +17°C° 0 mm 0 mps 735 mmHg 93%
    06:00 +19°C° 0 mm 0 mps 735 mmHg 91%
    07:00 +20°C° 0 mm 0 mps 736 mmHg 89%
    08:00 +22°C° 0.4 mm 0 mps 735 mmHg 82%
    09:00 +25°C° 0.4 mm 1 mps 735 mmHg 75%
    10:00 +27°C° 0.4 mm 1 mps 735 mmHg 67%
    11:00 +28°C° 0.5 mm 1 mps 735 mmHg 62%
    12:00 +30°C° 0.5 mm 1 mps 735 mmHg 56%
    13:00 +31°C° 0.5 mm 1 mps 735 mmHg 51%
    14:00 +31°C° 0.3 mm 2 mps 734 mmHg 50%
    15:00 +31°C° 0.3 mm 2 mps 734 mmHg 49%
    16:00 +31°C° 0.3 mm 3 mps 734 mmHg 47%
    17:00 +29°C° 0 mm 2 mps 734 mmHg 56%
    18:00 +27°C° 0 mm 2 mps 734 mmHg 65%
    19:00 +25°C° 0 mm 2 mps 734 mmHg 74%
    20:00 +24°C° 0 mm 1 mps 734 mmHg 77%
    21:00 +22°C° 0 mm 1 mps 734 mmHg 80%
    22:00 +21°C° 0 mm 1 mps 734 mmHg 83%
    23:00 +20°C° 0 mm 1 mps 734 mmHg 85%

    23 June, Sunday

    Time Temperature Precipitation Wind Pressure Humidity
    00:00 +20°C° 0 mm 1 mps 734 mmHg 87%
    01:00 +19°C° 0 mm 1 mps 735 mmHg 89%
    02:00 +18°C° 0 mm 1 mps 735 mmHg 90%
    03:00 +18°C° 0 mm 1 mps 735 mmHg 92%
    04:00 +15°C° 0 mm 0 mps 735 mmHg 93%
    05:00 +17°C° 0 mm 0 mps 735 mmHg 87%
    06:00 +19°C° 0 mm 0 mps 736 mmHg 80%
    07:00 +21°C° 0 mm 0 mps 736 mmHg 74%
    08:00 +23°C° 0.1 mm 0 mps 736 mmHg 69%
    09:00 +25°C° 0.1 mm 0 mps 737 mmHg 65%
    10:00 +27°C° 0.1 mm 0 mps 737 mmHg 60%
    11:00 +30°C° 0.2 mm 1 mps 737 mmHg 56%
    12:00 +30°C° 0.2 mm 1 mps 737 mmHg 53%
    13:00 +31°C° 0.2 mm 1 mps 737 mmHg 49%
    14:00 +31°C° 0 mm 1 mps 737 mmHg 50%
    15:00 +31°C° 0 mm 1 mps 736 mmHg 51%
    16:00 +30°C° 0 mm 1 mps 736 mmHg 53%
    17:00 +28°C° 0.1 mm 1 mps 736 mmHg 62%
    18:00 +27°C° 0.1 mm 1 mps 737 mmHg 72%
    19:00 +23°C° 0.1 mm 0 mps 737 mmHg 82%
    20:00 +22°C° 0.2 mm 0 mps 737 mmHg 85%
    21:00 +20°C° 0.2 mm 0 mps 738 mmHg 89%
    22:00 +19°C° 0.2 mm 0 mps 738 mmHg 92%
    23:00 +20°C° 0.2 mm 1 mps 739 mmHg 94%

    24 June, Monday

    Time Temperature Precipitation Wind Pressure Humidity
    00:00 +20°C° 0.2 mm 1 mps 739 mmHg 95%
    01:00 +20°C° 0.2 mm 1 mps 739 mmHg 96%
    02:00 +19°C° 0 mm 1 mps 739 mmHg 97%
    03:00 +19°C° 0 mm 1 mps 739 mmHg 97%
    04:00 +19°C° 0 mm 1 mps 739 mmHg 97%
    05:00 +19°C° 0 mm 1 mps 740 mmHg 96%
    06:00 +19°C° 0 mm 1 mps 740 mmHg 95%
    07:00 +20°C° 0 mm 1 mps 740 mmHg 94%
    08:00 +20°C° 0 mm 1 mps 741 mmHg 90%
    09:00 +21°C° 0 mm 1 mps 741 mmHg 85%
    10:00 +21°C° 0 mm 1 mps 741 mmHg 81%
    11:00 +24°C° 0 mm 1 mps 741 mmHg 72%
    12:00 +26°C° 0 mm 1 mps 741 mmHg 64%
    13:00 +28°C° 0 mm 1 mps 741 mmHg 56%
    14:00 +28°C° 0 mm 1 mps 741 mmHg 57%
    15:00 +28°C° 0 mm 2 mps 741 mmHg 59%
    16:00 +27°C° 0 mm 2 mps 740 mmHg 60%
    17:00 +26°C° 0 mm 2 mps 741 mmHg 67%
    18:00 +25°C° 0 mm 2 mps 741 mmHg 74%
    19:00 +24°C° 0 mm 1 mps 741 mmHg 81%
    20:00 +22°C° 0 mm 1 mps 741 mmHg 85%
    21:00 +21°C° 0 mm 1 mps 742 mmHg 89%
    22:00 +20°C° 0 mm 1 mps 742 mmHg 92%
    23:00 +17°C° 0 mm 0 mps 742 mmHg 91%
    Show more